Volver al catálogo

KHORS NO. 5

ActivoMilitarSSO
NORAD 67283·PAYLOAD·🇷🇺 Russia
Este nombre de satélite aún no ha sido confirmado por fuentes oficiales.

Lanzado Dec 28, 2025 desde Vostochny Cosmodrome

Loading…

Próximos Pases (próximas 24 horas)

TLE

ActualizadoSource: Space-Track

Época: Sep 14, 2026, 10:12 UTC

1 67283U 25313AM  26257.42523502  .00006794  00000-0  27491-3 0  9997
2 67283  97.3865 331.1025 0011058  50.9117 309.3103 15.24971792 39568

Sigue KHORS NO. 5 en tiempo real con AllMySat

Download on the App Store